ギャラッド彗星

C/2007 E1 ( Garradd )

English version
Home page
Total 6,336 html files since Dec. 4, 1995
Updated on April 3, 2008

---------------------------------------------------------------------

・ プロフィール

発見日 2007年3月13日
発見光度 14.6等
発見者 G. J. Garradd (Siding Spring Survey)

・ 写真集

・ 軌道要素

Epoch 2007 May 20.0 TT = JDT 2454240.5
T 2007 May 23.83046 TT                                  MPC
q   1.2858626            (2000.0)            P               Q
z  +0.0153790      Peri.    7.10217     -0.83630461     +0.54656928
 +/-0.0000872      Node   153.82685     +0.49809696     +0.72458751
e   0.9802247      Incl.  174.39399     +0.22911573     +0.41980348
From 838 observations 2007 Mar. 13-May 29, mean residual 0".58.

・ 星図

・ 光度変化

        m1 = 10.0 + 5 logΔ + 20 log r  [   ,-48]  (              〜2007年 4月 5日)
        m1 =  9.0 + 5 logΔ + 10 log r  [-48,  0]  (2007年 4月 5日〜2007年 5月23日)
        m1 =  7.9 + 5 logΔ + 20 log r  [  0,   ]  (2007年 5月23日〜              )

---------------------------------------------------------------------

軌道要素はM.P.E.C. 2007-K74に掲載されたものです。
星図は StellaNavigator Ver.2.0 for Windows (アストロアーツ 編著 / アスキー出版局刊) で作成したものです。
光度グラフはComet for Windowsで作成したものです。

---------------------------------------------------------------------

Copyright(C) 1995-2008 Seiichi Yoshida (comet@aerith.net). All rights reserved.